N0OQA Weather Reports


Display with metric or nautical units.
time (UTC)temp
F
wind
direction
speed
MPH
gust
MPH
rain 1hr
in
rain 24hr
in
rain mn
in
humidity
%
barometer
mb
20260502195152 64 224 9.0 13.0 0.00 0.00 0.00 34 1015.3
20260502185148 63 180 11.0 15.0 0.00 0.00 0.00 34 1016.7
20260502122624 36 0 0.0 0.0 0.00 0.00 0.00 82 1020.6
20260502122124 36 0 0.0 0.0 0.00 0.00 0.00 80 1020.8
20260502121623 36 0 0.0 0.0 0.00 0.00 0.00 80 1020.7
20260502121123 36 0 0.0 0.0 0.00 0.00 0.00 80 1020.7
20260502115121 36 0 0.0 0.0 0.00 0.00 0.00 81 1020.6
20260502114621 35 0 0.0 0.0 0.00 0.00 0.00 82 1020.6
20260502114120 35 0 0.0 0.0 0.00 0.00 0.00 83 1020.6
20260502113620 34 0 0.0 0.0 0.00 0.00 0.00 85 1020.6
20260502112119 33 0 0.0 0.0 0.00 0.00 0.00 87 1020.6
20260502111619 33 0 0.0 0.0 0.00 0.00 0.00 88 1020.6
20260502111119 33 0 0.0 0.0 0.00 0.00 0.00 88 1020.6
20260502110618 33 211 1.0 3.0 0.00 0.00 0.00 88 1020.6
20260502105618 33 0 0.0 0.0 0.00 0.00 0.00 89 1020.5
20260502105117 33 0 0.0 0.0 0.00 0.00 0.00 89 1020.5
20260502104617 33 0 0.0 0.0 0.00 0.00 0.00 90 1020.5
20260502103116 32 0 0.0 0.0 0.00 0.00 0.00 92 1020.5
20260502102116 33 0 0.0 0.0 0.00 0.00 0.00 92 1020.5
20260502101115 33 0 0.0 0.0 0.00 0.00 0.00 91 1020.4
20260502100615 33 240 2.0 3.0 0.00 0.00 0.00 91 1020.5
20260502100115 33 0 0.0 0.0 0.00 0.00 0.00 90 1020.4
20260502091112 34 0 0.0 0.0 0.00 0.00 0.00 79 1020.3
20260502090611 34 0 0.0 0.0 0.00 0.00 0.00 79 1020.2
20260502090111 34 0 0.0 0.0 0.00 0.00 0.00 78 1020.2
20260502080108 36 0 0.0 0.0 0.00 0.00 0.00 71 1020.3
20260502070605 38 0 0.0 0.0 0.00 0.00 0.00 67 1020.5
20260502070104 38 0 0.0 0.0 0.00 0.00 0.00 67 1020.5
20260502065604 38 0 0.0 0.0 0.00 0.00 0.00 66 1020.6
20260502065104 38 0 0.0 0.0 0.00 0.00 0.00 67 1020.6
20260502064603 38 0 0.0 0.0 0.00 0.00 0.00 67 1020.6
20260502063102 38 0 0.0 0.0 0.00 0.00 0.00 67 1020.7
20260502062602 38 0 0.0 0.0 0.00 0.00 0.00 67 1020.3
20260502062102 38 0 0.0 0.0 0.00 0.00 0.00 67 1020.7
20260502061602 38 0 0.0 0.0 0.00 0.00 0.00 67 1020.7
20260502061101 38 0 0.0 0.0 0.00 0.00 0.00 67 1020.7
20260502060601 38 0 0.0 0.0 0.00 0.00 0.00 67 1020.6
20260502060101 38 0 0.0 0.0 0.00 0.00 0.00 66 1020.7
20260502055601 38 0 0.0 0.0 0.00 0.00 0.00 66 1020.7
20260502054600 38 0 0.0 0.0 0.00 0.00 0.00 65 1020.7
20260502054100 38 0 0.0 0.0 0.00 0.00 0.00 65 1020.7
20260502053559 38 0 0.0 0.0 0.00 0.00 0.00 65 1020.7
20260502053059 38 0 0.0 0.0 0.00 0.00 0.00 65 1020.7
20260502052559 38 0 0.0 0.0 0.00 0.00 0.00 64 1020.8
20260502052059 38 0 0.0 0.0 0.00 0.00 0.00 63 1020.8
20260502051558 39 0 0.0 0.0 0.00 0.00 0.00 63 1020.8
20260502050558 39 0 0.0 0.0 0.00 0.00 0.00 62 1020.8
20260502050057 39 0 0.0 0.0 0.00 0.00 0.00 62 1020.8
20260502045557 39 0 0.0 0.0 0.00 0.00 0.00 63 1020.8
20260502043556 38 0 0.0 0.0 0.00 0.00 0.00 63 1020.8
20260502042555 38 0 0.0 0.0 0.00 0.00 0.00 63 1020.8
20260502041055 39 0 0.0 0.0 0.00 0.00 0.00 66 1020.8